This is the latest recevied weather packets stored in our database for station/object KC3WWU. If no packets are shown the sender has not sent any weather packets the latest 10 day(s).
| Time | Temp. | Humidity | Pressure | Rain* | Wind** | Luminosity | Snow |
|---|---|---|---|---|---|---|---|
| 1778141428 | 2.78° C | 96% | 1010.3 hPa | 0 mm | - | 0 W/m² | - |
| 1778141123 | 2.78° C | 95% | 1010.4 hPa | 0 mm | - | 0 W/m² | - |
| 1778140820 | 3.33° C | 93% | 1010.2 hPa | 0 mm | - | 0 W/m² | - |
| 1778140516 | 3.33° C | 92% | 1010.3 hPa | 0 mm | - | 0 W/m² | - |
| 1778140213 | 3.89° C | 90% | 1010 hPa | 0 mm | - | 0 W/m² | - |
| 1778139909 | 3.89° C | 89% | 1009.9 hPa | 0 mm | - | 0 W/m² | - |
| 1778139608 | 4.44° C | 88% | 1010 hPa | 0 mm | - | 0 W/m² | - |
| 1778139303 | 4.44° C | 85% | 1009.9 hPa | 0 mm | - | 0 W/m² | - |
| 1778139000 | 5° C | 87% | 1010.2 hPa | 0 mm | - | 0 W/m² | - |
| 1778138698 | 5° C | 86% | 1010.3 hPa | 0 mm | - | 0 W/m² | - |
| 1778138395 | 5° C | 86% | 1010.2 hPa | 0 mm | - | 0 W/m² | - |
| 1778138092 | 5° C | 85% | 1010.4 hPa | 0 mm | - | 0 W/m² | - |
| 1778137788 | 5° C | 87% | 1010.4 hPa | 0 mm | - | 0 W/m² | - |
| 1778137486 | 5° C | 86% | 1010.3 hPa | 0 mm | - | 0 W/m² | - |
| 1778137182 | 5° C | 87% | 1009.9 hPa | 0 mm | - | 0 W/m² | - |
| 1778136879 | 5.56° C | 88% | 1010 hPa | 0 mm | - | 0 W/m² | - |
| 1778136576 | 5.56° C | 84% | 1010.3 hPa | 0 mm | - | 0 W/m² | - |
| 1778136275 | 5.56° C | 81% | 1010.5 hPa | 0 mm | - | 0 W/m² | - |
| 1778135972 | 5.56° C | 81% | 1010.4 hPa | 0 mm | - | 0 W/m² | - |
| 1778135669 | 5.56° C | 82% | 1010.3 hPa | 0 mm | - | 0 W/m² | - |
| 1778135366 | 5.56° C | 80% | 1010.5 hPa | 0 mm | - | 0 W/m² | - |
| 1778135063 | 5.56° C | 78% | 1010.4 hPa | 0 mm | - | 0 W/m² | - |
| 1778134755 | 5.56° C | 79% | 1010.3 hPa | 0 mm | - | 0 W/m² | - |
| 1778134452 | 6.11° C | 79% | 1010.5 hPa | 0 mm | - | 0 W/m² | - |
| 1778134151 | 5.56° C | 77% | 1010.7 hPa | 0 mm | - | 0 W/m² | - |
* Rain latest hour (hover to see other rain measurements)
** Current wind speed in m/s (hover to see current wind gust speed)